User: anonymous
Location: Caltech
(34.1382°N, 118.1253°W)
Time: 07:02:17
(UTC-07:00)
Language:

JAS-1B - Orbit

View from above orbital plane
View from above orbital plane
View from above satellite
View from above satellite

Ground track
Ground track

The orbit data is extracted from the following two-line orbital elements,

1 20480U 90013C   14232.44987212 -.00000040  00000-0 -14395-4 0  8144
2 20480 099.0507 183.5209 0540105 208.1583 268.8043 12.83394860149375
Epoch (UTC): 20 August 2014 10:47:48
Eccentricity: 0.0540105
inclination: 99.0507°
perigee height: 911 km
apogee height: 1744 km
right ascension of ascending node: 183.5209°
argument of perigee: 208.1583°
revolutions per day: 12.83394860
mean anomaly at epoch: 268.8043°
orbit number at epoch: 14937

The dashed part of the orbit path shows where the satellite is in the earth's shadow,  

DLR